User: anonymous
Location: Caltech
(34.1382°N, 118.1253°W)
Time: 13:20:15
(UTC-07:00)
Language:

Cosmos 1758 Rocket - Orbit

View from above orbital plane
View from above orbital plane
View from above satellite
View from above satellite

Ground track
Ground track

The orbit data is extracted from the following two-line orbital elements,

1 16792U 86046B   14203.82953701  .00000126  00000-0  12633-4 0  5202
2 16792 082.4847 119.8610 0024880 179.8056 237.0378 14.82586389517731
Epoch (UTC): 22 July 2014 19:54:31
Eccentricity: 0.0024880
inclination: 82.4847°
perigee height: 604 km
apogee height: 638 km
right ascension of ascending node: 119.8610°
argument of perigee: 179.8056°
revolutions per day: 14.82586389
mean anomaly at epoch: 237.0378°
orbit number at epoch: 51773

The dashed part of the orbit path shows where the satellite is in the earth's shadow,  

DLR